Location: Drignac
(45.1667°N, 2.0333°E)
Time: 16:27:37
(UTC+00:00)

MetOp-B - Pass Details

Date: 29 March 2020
Orbit: 819 x 822 km, 98.7° (Epoch: 02 June)

Event Time Altitude Azimuth Distance (km) Brightness Sun altitude
Exits shadow 21:01:22 63° 217° (SW) 914 4.2 -27.4°
Maximum altitude 21:01:57 69° 257° (WSW) 880 4.3 -27.5°
Drops below altitude 10° 21:07:19 10° 341° (NNW) 2,430 7.3 -28.2°
Sets 21:09:42 0° 344° (NNW) 3,367 8.1 -28.6°
